Location: Champagnac
(45.3500°N, 2.4000°E)
Time: 00:13:13
(UTC+00:00)

Daily predictions for brighter satellites

Satellite Brightness Start Highest point End
(mag) Time Altitude Azimuth Time Altitude Azimuth Time Altitude Azimuth
COSMOS 2406 3.9 03:52:21 50° E 03:52:21 50° E 03:56:53 10° SE
Cosmos 2082 Rocket 3.3 03:52:50 37° NE 03:53:36 38° NE 03:58:49 10° ESE
COSMOS 2455 3.2 03:57:05 61° ESE 03:57:05 61° ESE 04:02:06 10° SE
Cosmos 2278 Rocket 2.2 04:13:39 75° ENE 04:13:39 75° ENE 04:18:55 10° NNE
USA 215 3.1 04:10:15 10° SE 04:16:47 86° NE 04:17:51 66° NW
CZ-2C R/B 3.9 04:15:08 10° SE 04:20:14 39° ENE 04:25:17 10° N
BREEZE M DEB (TANK) 3.6 04:21:18 63° NE 04:21:18 63° NE 04:23:51 10° ENE
Cosmos 1072 Rocket 4.4 04:18:58 17° N 04:23:53 83° E 04:30:00 10° S
Cosmos 540 Rocket 3.7 04:25:25 57° NNE 04:26:15 67° ENE 04:31:21 10° SSE
Cosmos 2221 3.6 04:32:04 37° SSE 04:32:04 37° SSE 04:34:45 10° S
Cosmos 1833 Rocket 3.2 04:34:00 43° SSW 04:34:00 43° SSW 04:38:04 10° S
Cosmos 1741 Rocket 4.2 04:30:04 21° S 04:33:30 70° ESE 04:38:43 10° NNE
SL-8 R/B 3.7 04:35:05 78° NE 04:35:05 78° NE 04:39:35 10° ENE
Meteor 1-31 Rocket 4.4 04:35:19 10° NNE 04:38:51 34° E 04:42:24 10° SSE
Cosmos 2151 4.5 04:37:41 10° SSE 04:41:36 37° E 04:45:34 10° NNE
Cosmos 841 Rocket 3.4 04:48:36 35° NNW 04:50:51 84° ENE 04:56:00 10° SSE
Cosmos 1763 Rocket 4.1 04:52:50 37° SW 04:52:50 37° SW 04:56:35 10° S
H-2A R/B 4.5 04:53:35 10° ESE 04:56:41 20° ENE 04:59:49 10° NNE
SJ-12 3.9 04:54:20 10° NNE 04:58:29 81° E 05:02:36 10° S
Envisat 3.1 04:54:19 10° NNE 04:59:25 79° ESE 05:04:30 10° S
SL-19 R/B 4.2 04:53:55 10° S 04:59:35 68° WSW 05:03:26 21° NNW
Cosmos 1570 Rocket 4.4 05:01:27 14° NNW 05:06:00 62° ENE 05:11:11 10° SSE
Cosmos 1076 Rocket 3.4 05:02:12 10° SSW 05:06:33 76° W 05:10:57 10° N
YAOGAN 6 2.4 05:03:55 10° N 05:07:36 72° WNW 05:11:16 10° SSW
CBERS 1 LM4 rocket 4.4 05:06:32 10° NNE 05:11:20 85° ESE 05:16:15 10° SSW
COSMO-SKYMED 1 2.4 05:07:13 10° S 05:11:33 76° WSW 05:14:38 19° NNW
Aureole 1 Rocket 4.2 05:10:01 10° SSE 05:12:51 29° ESE 05:15:31 10° NE
Cosmos 1867 4.2 05:10:50 18° NNW 05:14:50 55° NE 05:20:11 10° SE
Cosmos 2084 Rocket 3.5 05:13:26 11° SSW 05:17:10 64° SE 05:21:00 10° NE
APEX 3.8 05:16:51 25° NNE 05:17:51 35° ENE 05:20:34 10° SE
NOSS 3-2 (A) 3.4 05:12:36 10° SSW 05:18:07 79° SE 05:24:30 10° NE
Cosmos 1464 Rocket 4.3 05:12:14 10° NNW 05:18:09 43° W 05:23:58 10° SSW
FALCON 9 DEB 4.2 05:19:05 20° SSW 05:20:34 34° SE 05:23:12 10° ENE
H-2A R/B 2.6 05:16:58 10° N 05:20:34 54° WNW 05:24:11 10° SSW
NOSS 3-2 (C) 4.3 05:16:28 10° SSW 05:21:42 48° ESE 05:27:41 10° NE
CENTAUR R/B 2.7 05:19:05 10° SSW 05:24:48 71° ESE 05:31:43 10° NE
Cosmos 968 Rocket 4.4 05:21:12 10° S 05:26:11 50° ESE 05:31:09 10° NNE
Cosmos 1151 Rocket 4.4 05:22:31 10° N 05:26:41 40° ENE 05:30:50 10° SSE
Gbstr 26 Del rocket 2.8 05:28:19 33° NW 05:29:59 79° NNE 05:34:19 10° ESE
Cosmos 2208 Rocket 4.2 05:24:49 10° NNW 05:30:18 80° ENE 05:35:43 10° SSE
Meteor 2-3 Rocket 3.6 05:24:58 10° SSW 05:30:36 81° W 05:36:20 10° N
CZ-4B R/B 4.0 05:27:18 10° NNE 05:30:46 41° E 05:34:09 10° S
Landsat 5 3.7 05:27:37 10° S 05:32:03 59° W 05:36:32 10° NNW
Cosmos 1814 Rocket 3.9 05:28:34 14° NNW 05:33:03 69° WSW 05:38:07 10° S
COSMOS 2406 4.3 05:34:29 22° W 05:35:09 23° W 05:39:28 10° SSW
Cosmos 2082 Rocket 2.8 05:34:43 22° NW 05:37:38 36° WSW 05:42:40 10° S
NOSS 8 (A) 4.0 05:35:25 10° SW 05:38:55 74° NW 05:41:52 10° NE
Meteor 1-26 Rocket 4.3 05:33:00 10° NNW 05:39:01 77° W 05:44:52 10° S
CZ-4B R/B 3.8 05:38:19 10° ESE 05:41:03 23° ENE 05:43:45 10° NNE
Cosmos 2297 3.7 05:35:26 10° SSW 05:41:11 87° WNW 05:46:58 10° NNE
COSMOS 2455 4.1 05:40:17 19° W 05:41:22 20° WSW 05:45:37 10° SSW
Meteor PRIRODA 4.0 05:38:00 10° NNE 05:41:37 66° ESE 05:45:12 10° S
Kosmos-917 4.3 05:43:21 25° W 05:44:33 37° NW 05:48:54 10° NE
USA 238 DEB 3.7 05:43:22 10° SSW 05:49:50 84° SE 05:56:42 10° NE
USA 238 3.7 05:43:28 10° SSW 05:49:56 84° SE 05:56:48 10° NE
OE (NEXTSAT) 4.2 05:49:10 23° W 05:51:09 87° SSW 05:54:34 10° ESE
Cosmos 1782 2.9 05:49:45 10° NNW 05:53:37 53° W 05:57:27 10° S
NOAA 11 4.1 05:50:26 10° N 05:55:54 75° WNW 06:01:21 10° SSW
Cosmos 1862 3.8 05:52:20 10° S 05:56:14 63° E 06:00:09 10° NNE
CZ-2C R/B 2.9 05:52:49 10° NNE 05:57:37 89° ESE 06:02:32 10° SSW
SWAS 4.4 05:53:34 10° SSW 05:57:52 81° WNW 06:02:13 10° NNE
Cosmos 2278 Rocket 3.5 05:55:34 16° WNW 05:58:00 20° NW 06:02:10 10° N
USA 215 4.2 05:54:42 10° S 06:00:16 30° SW 06:05:12 13° WNW
CZ-2C R/B 3.4 05:55:39 10° SSW 06:00:34 32° W 06:05:26 10° NNW
Cosmos 1943 Rocket 2.2 05:55:41 10° SW 06:01:18 63° WNW 06:06:56 10° NNE
Okean 3 Rocket 3.9 06:00:02 10° S 06:04:31 76° E 06:09:04 10° NNE
Cosmos 1486 Rocket 4.5 06:00:04 10° S 06:05:20 68° ESE 06:10:36 10° NNE
Cosmos 1933 4.4 06:03:53 10° NW 06:07:09 24° W 06:10:26 10° SW
IRAS Rocket 4.4 06:02:11 10° S 06:07:36 54° WSW 06:13:00 10° NNW
Cosmos 2344 3.8 06:00:50 10° WSW 06:07:55 46° NW 06:15:37 10° NE
OPS 8737 4.5 06:04:58 10° SW 06:09:16 73° NW 06:12:31 10° NE
FengYun 1-2 T 4.4 06:05:40 10° NNE 06:11:12 80° ESE 06:16:41 10° S
ADEOS 3.8 06:06:28 10° N 06:11:28 47° WNW 06:16:26 10° SW
Meteor 1-31 Rocket 4.0 06:10:08 10° NNW 06:13:02 20° WNW 06:15:55 10° WSW
Iridium 2 4.1 06:12:16 10° SSW 06:15:50 40° W 06:19:26 10° N
SJ 16-02 4.5 06:13:38 10° SE 06:16:23 16° E 06:19:07 10° ENE
SL-8 R/B 3.9 06:13:04 11° W 06:17:35 59° N 06:22:19 10° E
Cosmos 2151 4.2 06:15:44 10° WSW 06:19:01 21° WNW 06:22:18 10° NNW
BREEZE-M DEB (TANK) 4.0 06:09:14 10° SW 06:20:49 56° SSE 06:24:13 10° ENE
Cosmos 2279 Rocket 4.0 06:14:47 10° NNW 06:20:56 66° W 06:27:02 10° S
Meteor 2-8 Rocket 4.5 06:15:40 10° N 06:21:52 83° W 06:27:59 10° S
AQUARIUS 4.3 06:19:45 10° NNE 06:24:17 83° ESE 06:28:46 10° SSW
Cosmos 1812 3.3 06:22:14 10° NNW 06:25:49 37° W 06:29:23 10° SSW
Nadezhda 4 Rocket 4.3 06:25:48 10° S 06:31:53 75° E 06:38:05 10° NNE
H-2A R/B 2.5 06:28:23 10° S 06:32:20 42° W 06:36:25 10° NNW
Cosmos 1939 Rocket 3.0 06:29:07 10° N 06:33:01 51° WNW 06:36:49 10° SSW
SMAP 3.1 06:32:01 10° N 06:36:39 66° WNW 06:41:15 10° SSW
FALCON 9 R/B 4.3 06:21:54 10° W 06:37:45 39° SSW 06:42:58 10° SE
